FIN09 EGLC-EFHK

Flight info

Callsign FIN09
Flight time 2h 33m
Altitude 37000
Route ODUKU M84 CLN DCT EFMIH M604 GIVPO DCT ROKAN DCT RENEQ DCT AMADA DCT ALAMI DCT OKEVU DCT EVADI Y370 DIVAM
Aircraft A320/M-SDE3FGHIRWY/LB1

Departure

Time 2026-04-20 15:40
Airport London City Airport (EGLC)

Arrival

Time 2026-04-20 18:13
Airport Helsinki Vantaa Airport (EFHK)
Time Latitude Longitude Altitude Speed Heading
2026-04-20 15:23 51.50467 0.04253 25 ft 0 kts 172°
2026-04-20 15:35 51.50468 0.04253 24 ft 1 kts 172°
2026-04-20 15:35 51.50491 0.04244 25 ft 4 kts 148°
2026-04-20 15:36 51.50504 0.04227 27 ft 4 kts 119°
2026-04-20 15:36 51.50508 0.04211 24 ft 0 kts 105°
2026-04-20 15:38 51.50503 0.04243 26 ft 7 kts 103°
2026-04-20 15:38 51.50499 0.04312 24 ft 7 kts 94°
2026-04-20 15:38 51.50492 0.04393 24 ft 8 kts 104°
2026-04-20 15:39 51.50517 0.04436 26 ft 5 kts 19°
2026-04-20 15:39 51.50543 0.04448 28 ft 4 kts 20°
2026-04-20 15:39 51.50555 0.04489 27 ft 4 kts 91°
2026-04-20 15:39 51.50553 0.04614 29 ft 34 kts 92°
2026-04-20 15:40 51.50525 0.05462 24 ft 115 kts 92°
2026-04-20 15:40 51.50487 0.06982 373 ft 141 kts 91°
2026-04-20 15:40 51.50466 0.08546 1140 ft 141 kts 86°
2026-04-20 15:40 51.50471 0.10098 1786 ft 138 kts 80°
2026-04-20 15:41 51.50726 0.11546 2360 ft 136 kts 63°
2026-04-20 15:41 51.51242 0.12800 2907 ft 135 kts 47°
2026-04-20 15:41 51.51988 0.13758 3378 ft 145 kts 31°
2026-04-20 15:41 51.52970 0.14520 3633 ft 169 kts 27°
2026-04-20 15:42 51.54098 0.15377 3922 ft 192 kts 27°
2026-04-20 15:42 51.55306 0.16456 4471 ft 204 kts 43°
2026-04-20 15:42 51.56143 0.18409 4925 ft 226 kts 62°
2026-04-20 15:42 51.56879 0.20784 5398 ft 246 kts 63°
2026-04-20 15:43 51.57628 0.23313 6192 ft 253 kts 63°
2026-04-20 15:43 51.58392 0.25902 7022 ft 258 kts 63°
2026-04-20 15:43 51.59179 0.28548 7796 ft 265 kts 62°
2026-04-20 15:43 51.59986 0.31246 8631 ft 269 kts 62°
2026-04-20 15:44 51.60811 0.33990 9438 ft 275 kts 64°
2026-04-20 15:44 51.61656 0.36799 10229 ft 281 kts 63°
2026-04-20 15:44 51.62530 0.39692 10698 ft 298 kts 62°
2026-04-20 15:44 51.63479 0.42811 10943 ft 322 kts 63°
2026-04-20 15:45 51.64497 0.46168 11177 ft 343 kts 62°
2026-04-20 15:45 51.65550 0.49668 11747 ft 351 kts 63°
2026-04-20 15:45 51.66621 0.53244 12446 ft 356 kts 62°
2026-04-20 15:45 51.67703 0.56858 13133 ft 361 kts 63°
2026-04-20 15:46 51.68801 0.60524 13841 ft 365 kts 63°
2026-04-20 15:46 51.69906 0.64220 14477 ft 369 kts 62°
2026-04-20 15:46 51.71027 0.67982 15079 ft 374 kts 62°
2026-04-20 15:46 51.72141 0.71723 15664 ft 378 kts 62°
2026-04-20 15:47 51.73284 0.75564 16270 ft 382 kts 62°
2026-04-20 15:47 51.74438 0.79445 16867 ft 386 kts 62°
2026-04-20 15:47 51.75603 0.83367 17465 ft 390 kts 62°
2026-04-20 15:47 51.76780 0.87338 18047 ft 394 kts 62°
2026-04-20 15:48 51.77966 0.91349 18630 ft 398 kts 62°
2026-04-20 15:48 51.79165 0.95413 19129 ft 403 kts 61°
2026-04-20 15:48 51.80372 0.99518 19654 ft 407 kts 61°
2026-04-20 15:48 51.81591 1.03662 20124 ft 408 kts 62°
2026-04-20 15:49 51.82810 1.07799 20401 ft 409 kts 61°
2026-04-20 15:49 51.84259 1.11744 20953 ft 408 kts 51°
2026-04-20 15:49 51.86087 1.15232 21468 ft 407 kts 41°
2026-04-20 15:49 51.88243 1.18188 21958 ft 406 kts 32°
2026-04-20 15:50 51.90613 1.20668 22447 ft 407 kts 29°
2026-04-20 15:50 51.93014 1.23123 22931 ft 410 kts 28°
2026-04-20 15:50 51.95432 1.25598 23401 ft 412 kts 28°
2026-04-20 15:50 51.97865 1.28096 23848 ft 415 kts 28°
2026-04-20 15:51 52.00308 1.30615 24211 ft 417 kts 28°
2026-04-20 15:51 52.02765 1.33154 24549 ft 420 kts 28°
2026-04-20 15:51 52.05240 1.35713 24890 ft 423 kts 29°
2026-04-20 15:51 52.07734 1.38295 25227 ft 426 kts 29°
2026-04-20 15:52 52.10240 1.40891 25545 ft 428 kts 28°
2026-04-20 15:52 52.12761 1.43504 25876 ft 431 kts 28°
2026-04-20 15:52 52.15292 1.46133 26190 ft 433 kts 28°
2026-04-20 15:53 52.20376 1.51417 26827 ft 438 kts 29°
2026-04-20 15:53 52.22948 1.54100 27121 ft 441 kts 28°
2026-04-20 15:53 52.25542 1.56808 27402 ft 443 kts 28°
2026-04-20 15:53 52.28143 1.59532 27699 ft 446 kts 30°
2026-04-20 15:54 52.30755 1.62276 27981 ft 448 kts 30°
2026-04-20 15:54 52.33381 1.65035 28250 ft 450 kts 30°
2026-04-20 15:54 52.36019 1.67804 28505 ft 452 kts 30°
2026-04-20 15:54 52.38669 1.70586 28754 ft 454 kts 30°
2026-04-20 15:55 52.41333 1.73386 28987 ft 456 kts 30°
2026-04-20 15:55 52.44009 1.76209 29260 ft 457 kts 30°
2026-04-20 15:55 52.46678 1.79032 29587 ft 457 kts 30°
2026-04-20 15:55 52.49349 1.81862 29920 ft 457 kts 30°
2026-04-20 15:56 52.52016 1.84693 30270 ft 457 kts 30°
2026-04-20 15:56 52.54691 1.87533 30563 ft 456 kts 30°
2026-04-20 15:56 52.57242 1.90662 30831 ft 459 kts 39°
2026-04-20 15:56 52.59522 1.94371 31087 ft 461 kts 44°
2026-04-20 15:57 52.61740 1.98180 31350 ft 462 kts 43°
2026-04-20 15:57 52.63968 2.01989 31623 ft 461 kts 44°
2026-04-20 15:57 52.66195 2.05792 31919 ft 461 kts 44°
2026-04-20 15:57 52.68419 2.09594 32198 ft 461 kts 44°
2026-04-20 15:58 52.70642 2.13399 32478 ft 461 kts 44°
2026-04-20 15:58 52.72867 2.17218 32746 ft 461 kts 44°
2026-04-20 15:58 52.75084 2.21036 33031 ft 461 kts 44°
2026-04-20 15:58 52.77299 2.24855 33325 ft 460 kts 44°
2026-04-20 15:59 52.79513 2.28679 33611 ft 460 kts 44°
2026-04-20 15:59 52.81693 2.32453 33889 ft 460 kts 44°
2026-04-20 15:59 52.83898 2.36274 34170 ft 460 kts 44°
2026-04-20 15:59 52.86111 2.40111 34418 ft 460 kts 44°
2026-04-20 16:00 52.88322 2.43951 34645 ft 460 kts 44°
2026-04-20 16:00 52.90525 2.47781 34880 ft 460 kts 44°
2026-04-20 16:00 52.92728 2.51620 35111 ft 459 kts 44°
2026-04-20 16:00 52.94929 2.55465 35339 ft 459 kts 44°
2026-04-20 16:01 52.97171 2.59257 35551 ft 458 kts 40°
2026-04-20 16:01 52.99669 2.62518 35765 ft 455 kts 31°
2026-04-20 16:01 53.02414 2.65105 35969 ft 453 kts 24°
2026-04-20 16:01 53.05242 2.67428 36156 ft 453 kts 24°
2026-04-20 16:02 53.08061 2.69757 36350 ft 453 kts 24°
2026-04-20 16:02 53.10879 2.72100 36544 ft 452 kts 24°
2026-04-20 16:02 53.13692 2.74440 36738 ft 452 kts 25°
2026-04-20 16:02 53.16502 2.76781 36919 ft 452 kts 25°
2026-04-20 16:03 53.19316 2.79135 37096 ft 452 kts 25°
2026-04-20 16:03 53.22123 2.81485 37250 ft 452 kts 25°
2026-04-20 16:03 53.27767 2.86210 37296 ft 455 kts 24°
2026-04-20 16:04 53.32893 2.90516 37291 ft 455 kts 25°
2026-04-20 16:04 53.38557 2.95279 37291 ft 455 kts 25°
2026-04-20 16:05 53.44219 3.00057 37291 ft 455 kts 25°
2026-04-20 16:05 53.49876 3.04858 37292 ft 456 kts 24°
2026-04-20 16:06 53.55530 3.09671 37301 ft 456 kts 25°
2026-04-20 16:06 53.61193 3.14496 37311 ft 456 kts 25°
2026-04-20 16:07 53.66623 3.20020 37310 ft 459 kts 38°
2026-04-20 16:07 53.71018 3.27749 37311 ft 460 kts 47°
2026-04-20 16:08 53.75280 3.35825 37312 ft 460 kts 47°
2026-04-20 16:08 53.79544 3.43878 37310 ft 460 kts 46°
2026-04-20 16:09 53.83793 3.51963 37309 ft 460 kts 47°
2026-04-20 16:09 53.88030 3.60084 37307 ft 460 kts 47°
2026-04-20 16:10 53.92266 3.68211 37315 ft 460 kts 47°
2026-04-20 16:10 53.96497 3.76345 37323 ft 459 kts 47°
2026-04-20 16:11 54.00709 3.84482 37326 ft 458 kts 48°
2026-04-20 16:11 54.04919 3.92632 37327 ft 458 kts 48°
2026-04-20 16:12 54.09121 4.00799 37332 ft 458 kts 48°
2026-04-20 16:12 54.13287 4.08906 37324 ft 458 kts 48°
2026-04-20 16:13 54.17474 4.17085 37326 ft 457 kts 48°
2026-04-20 16:13 54.21638 4.25289 37330 ft 457 kts 49°
2026-04-20 16:14 54.25512 4.33866 37326 ft 456 kts 56°
2026-04-20 16:14 54.29002 4.42958 37329 ft 457 kts 56°
2026-04-20 16:15 54.32499 4.52049 37326 ft 457 kts 56°
2026-04-20 16:15 54.35988 4.61144 37325 ft 457 kts 56°
2026-04-20 16:16 54.39460 4.70270 37327 ft 457 kts 57°
2026-04-20 16:16 54.42901 4.79347 37335 ft 455 kts 57°
2026-04-20 16:17 54.46347 4.88466 37341 ft 454 kts 57°
2026-04-20 16:17 54.49781 4.97594 37335 ft 454 kts 57°
2026-04-20 16:18 54.53196 5.06718 37332 ft 453 kts 57°
2026-04-20 16:18 54.56608 5.15838 37336 ft 453 kts 57°
2026-04-20 16:19 54.60013 5.24970 37336 ft 452 kts 57°
2026-04-20 16:19 54.63412 5.34123 37333 ft 452 kts 57°
2026-04-20 16:20 54.66796 5.43278 37343 ft 451 kts 57°
2026-04-20 16:20 54.70162 5.52419 37345 ft 450 kts 58°
2026-04-20 16:21 54.73515 5.61564 37346 ft 450 kts 58°
2026-04-20 16:21 54.76861 5.70715 37345 ft 449 kts 58°
2026-04-20 16:22 54.80191 5.79866 37340 ft 449 kts 58°
2026-04-20 16:22 54.83514 5.89022 37336 ft 448 kts 58°
2026-04-20 16:23 54.86811 5.98132 37332 ft 448 kts 58°
2026-04-20 16:23 54.90113 6.07309 37344 ft 447 kts 58°
2026-04-20 16:24 54.93407 6.16490 37344 ft 447 kts 58°
2026-04-20 16:24 54.96690 6.25657 37343 ft 446 kts 58°
2026-04-20 16:25 54.99963 6.34844 37346 ft 446 kts 58°
2026-04-20 16:25 55.03304 6.43959 37345 ft 446 kts 57°
2026-04-20 16:26 55.06691 6.53012 37343 ft 446 kts 57°
2026-04-20 16:26 55.10051 6.62038 37341 ft 446 kts 57°
2026-04-20 16:27 55.13405 6.71147 37344 ft 445 kts 58°
2026-04-20 16:27 55.16740 6.80262 37344 ft 445 kts 58°
2026-04-20 16:28 55.20074 6.89387 37343 ft 445 kts 58°
2026-04-20 16:28 55.23404 6.98511 37342 ft 444 kts 58°
2026-04-20 16:29 55.26722 7.07649 37337 ft 444 kts 58°
2026-04-20 16:29 55.30029 7.16808 37340 ft 444 kts 58°
2026-04-20 16:30 55.33326 7.25976 37335 ft 444 kts 58°
2026-04-20 16:30 55.36613 7.35148 37346 ft 444 kts 58°
2026-04-20 16:31 55.39903 7.44342 37346 ft 444 kts 58°
2026-04-20 16:31 55.43181 7.53546 37346 ft 444 kts 58°
2026-04-20 16:32 55.46454 7.62782 37349 ft 444 kts 58°
2026-04-20 16:32 55.49700 7.71957 37350 ft 444 kts 58°
2026-04-20 16:33 55.52969 7.81209 37351 ft 444 kts 58°
2026-04-20 16:33 55.56224 7.90486 37359 ft 443 kts 58°
2026-04-20 16:34 55.59459 7.99759 37365 ft 442 kts 59°
2026-04-20 16:34 55.62678 8.09015 37360 ft 441 kts 58°
2026-04-20 16:35 55.65886 8.18278 37357 ft 441 kts 59°
2026-04-20 16:35 55.69086 8.27559 37354 ft 441 kts 59°
2026-04-20 16:36 55.72260 8.36773 37361 ft 440 kts 59°
2026-04-20 16:36 55.75456 8.46069 37359 ft 440 kts 59°
2026-04-20 16:37 55.78635 8.55361 37685 ft 438 kts 59°
2026-04-20 16:37 55.80209 8.59984 37866 ft 438 kts 59°
2026-04-20 16:37 55.81784 8.64617 38033 ft 437 kts 59°
2026-04-20 16:38 55.83358 8.69254 38192 ft 438 kts 59°
2026-04-20 16:38 55.84929 8.73903 38347 ft 437 kts 59°
2026-04-20 16:38 55.86494 8.78542 38496 ft 438 kts 59°
2026-04-20 16:38 55.88040 8.83139 38652 ft 438 kts 59°
2026-04-20 16:39 55.89606 8.87796 38788 ft 438 kts 59°
2026-04-20 16:39 55.91169 8.92454 38948 ft 438 kts 59°
2026-04-20 16:39 55.92732 8.97116 39060 ft 438 kts 59°
2026-04-20 16:39 55.94298 9.01788 39168 ft 438 kts 59°
2026-04-20 16:40 55.95857 9.06448 39306 ft 437 kts 59°
2026-04-20 16:40 55.97419 9.11126 39347 ft 439 kts 59°
2026-04-20 16:40 56.00544 9.20518 39355 ft 441 kts 59°
2026-04-20 16:41 56.03661 9.29935 39356 ft 441 kts 59°
2026-04-20 16:41 56.06780 9.39407 39352 ft 441 kts 59°
2026-04-20 16:42 56.09887 9.48876 39355 ft 442 kts 59°
2026-04-20 16:42 56.12980 9.58308 39363 ft 442 kts 59°
2026-04-20 16:43 56.16088 9.67822 39368 ft 442 kts 59°
2026-04-20 16:43 56.19179 9.77363 39372 ft 442 kts 59°
2026-04-20 16:44 56.22267 9.86906 39372 ft 442 kts 59°
2026-04-20 16:44 56.25349 9.96464 39370 ft 442 kts 59°
2026-04-20 16:45 56.28426 10.06060 39370 ft 442 kts 59°
2026-04-20 16:45 56.31476 10.15605 39368 ft 442 kts 59°
2026-04-20 16:46 56.34538 10.25222 39372 ft 442 kts 60°
2026-04-20 16:46 56.37582 10.34840 39373 ft 442 kts 59°
2026-04-20 16:47 56.40117 10.42871 39385 ft 442 kts 59°
2026-04-20 16:47 56.43170 10.52555 39375 ft 443 kts 59°
2026-04-20 16:48 56.46214 10.62266 39375 ft 443 kts 60°
2026-04-20 16:48 56.49232 10.71938 39373 ft 443 kts 60°
2026-04-20 16:49 56.52259 10.81688 39373 ft 443 kts 60°
2026-04-20 16:49 56.55255 10.91393 39374 ft 443 kts 60°
2026-04-20 16:50 56.58271 11.01174 39373 ft 444 kts 60°
2026-04-20 16:50 56.61274 11.10951 39374 ft 444 kts 60°
2026-04-20 16:51 56.64277 11.20753 39375 ft 443 kts 60°
2026-04-20 16:51 56.67264 11.30556 39376 ft 443 kts 60°
2026-04-20 16:52 56.70240 11.40367 39376 ft 443 kts 60°
2026-04-20 16:52 56.73203 11.50199 39374 ft 442 kts 60°
2026-04-20 16:53 56.76155 11.60025 39371 ft 442 kts 60°
2026-04-20 16:53 56.79088 11.69827 39371 ft 442 kts 61°
2026-04-20 16:54 56.82034 11.79701 39380 ft 442 kts 61°
2026-04-20 16:54 56.84948 11.89506 39378 ft 441 kts 61°
2026-04-20 16:55 56.87876 11.99396 39380 ft 441 kts 61°
2026-04-20 16:55 56.90772 12.09249 39381 ft 440 kts 62°
2026-04-20 16:56 56.93651 12.19085 39378 ft 440 kts 62°
2026-04-20 16:56 56.96548 12.28998 39377 ft 440 kts 62°
2026-04-20 16:57 56.99428 12.38892 39377 ft 440 kts 62°
2026-04-20 16:57 57.02294 12.48794 39386 ft 439 kts 62°
2026-04-20 16:58 57.05141 12.58699 39382 ft 438 kts 62°
2026-04-20 16:58 57.07979 12.68600 39381 ft 437 kts 62°
2026-04-20 16:59 57.10790 12.78446 39378 ft 437 kts 62°
2026-04-20 16:59 57.13610 12.88342 39370 ft 436 kts 62°
2026-04-20 17:00 57.17820 13.03186 39375 ft 436 kts 62°
2026-04-20 17:01 57.20610 13.13102 39379 ft 436 kts 62°
2026-04-20 17:01 57.23391 13.23038 39376 ft 435 kts 62°
2026-04-20 17:02 57.26156 13.32970 39379 ft 435 kts 62°
2026-04-20 17:02 57.28914 13.42916 39379 ft 434 kts 63°
2026-04-20 17:03 57.31652 13.52822 39380 ft 433 kts 62°
2026-04-20 17:03 57.34393 13.62726 39379 ft 433 kts 63°
2026-04-20 17:04 57.37129 13.72696 39378 ft 433 kts 63°
2026-04-20 17:04 57.39835 13.82641 39378 ft 433 kts 63°
2026-04-20 17:05 57.42545 13.92613 39390 ft 434 kts 63°
2026-04-20 17:05 57.45261 14.02652 39378 ft 434 kts 63°
2026-04-20 17:06 57.47962 14.12663 39362 ft 434 kts 63°
2026-04-20 17:06 57.50651 14.22676 39368 ft 434 kts 63°
2026-04-20 17:07 57.53352 14.32783 39373 ft 434 kts 63°
2026-04-20 17:07 57.56036 14.42861 39383 ft 434 kts 63°
2026-04-20 17:08 57.58699 14.52933 39388 ft 434 kts 63°
2026-04-20 17:08 57.61372 14.63073 39402 ft 434 kts 63°
2026-04-20 17:09 57.64015 14.73146 39387 ft 434 kts 64°
2026-04-20 17:09 57.66668 14.83314 39390 ft 434 kts 64°
2026-04-20 17:10 57.69299 14.93447 39395 ft 434 kts 64°
2026-04-20 17:10 57.71919 15.03589 39397 ft 434 kts 64°
2026-04-20 17:11 57.74547 15.13771 39395 ft 434 kts 64°
2026-04-20 17:11 57.77153 15.23922 39394 ft 434 kts 64°
2026-04-20 17:12 57.79748 15.34099 39404 ft 433 kts 64°
2026-04-20 17:12 57.82349 15.44333 39412 ft 433 kts 64°
2026-04-20 17:13 57.84934 15.54565 39404 ft 433 kts 64°
2026-04-20 17:13 57.87505 15.64759 39409 ft 433 kts 64°
2026-04-20 17:14 57.90064 15.74957 39409 ft 433 kts 64°
2026-04-20 17:14 57.92633 15.85252 39411 ft 433 kts 64°
2026-04-20 17:15 57.95172 15.95510 39411 ft 433 kts 65°
2026-04-20 17:15 57.97702 16.05762 39415 ft 433 kts 64°
2026-04-20 17:16 58.00240 16.16052 39427 ft 433 kts 65°
2026-04-20 17:16 58.02768 16.26357 39421 ft 432 kts 65°
2026-04-20 17:17 58.05281 16.36660 39424 ft 432 kts 65°
2026-04-20 17:17 58.07788 16.46995 39422 ft 432 kts 65°
2026-04-20 17:18 58.10270 16.57280 39419 ft 431 kts 65°
2026-04-20 17:18 58.12742 16.67581 39421 ft 431 kts 65°
2026-04-20 17:19 58.15222 16.77952 39422 ft 431 kts 65°
2026-04-20 17:19 58.17673 16.88268 39434 ft 431 kts 65°
2026-04-20 17:20 58.20134 16.98661 39416 ft 431 kts 65°
2026-04-20 17:20 58.22573 17.09005 39412 ft 431 kts 65°
2026-04-20 17:21 58.25012 17.19408 39415 ft 431 kts 66°
2026-04-20 17:21 58.27428 17.29772 39415 ft 431 kts 66°
2026-04-20 17:22 58.29862 17.40213 39409 ft 430 kts 66°
2026-04-20 17:22 58.32278 17.50655 39411 ft 430 kts 66°
2026-04-20 17:23 58.34661 17.61016 39410 ft 430 kts 66°
2026-04-20 17:23 58.37057 17.71502 39418 ft 430 kts 66°
2026-04-20 17:24 58.39443 17.81975 39408 ft 430 kts 66°
2026-04-20 17:24 58.41809 17.92403 39409 ft 430 kts 66°
2026-04-20 17:25 58.44173 18.02881 39409 ft 430 kts 66°
2026-04-20 17:25 58.46536 18.13406 39411 ft 430 kts 66°
2026-04-20 17:26 58.48885 18.23929 39411 ft 430 kts 66°
2026-04-20 17:26 58.51212 18.34401 39406 ft 431 kts 66°
2026-04-20 17:27 58.53544 18.44953 39409 ft 431 kts 66°
2026-04-20 17:27 58.55868 18.55530 39399 ft 431 kts 67°
2026-04-20 17:28 58.58181 18.66122 39398 ft 431 kts 67°
2026-04-20 17:28 58.60483 18.76719 39404 ft 431 kts 67°
2026-04-20 17:29 58.62784 18.87342 39405 ft 430 kts 67°
2026-04-20 17:29 58.65080 18.97967 39406 ft 430 kts 67°
2026-04-20 17:30 58.67365 19.08593 39405 ft 430 kts 67°
2026-04-20 17:30 58.69635 19.19230 39420 ft 430 kts 67°
2026-04-20 17:31 58.71896 19.29883 39414 ft 430 kts 67°
2026-04-20 17:31 58.74143 19.40540 39408 ft 430 kts 68°
2026-04-20 17:32 58.76379 19.51215 39407 ft 429 kts 68°
2026-04-20 17:32 58.78603 19.61832 39404 ft 429 kts 68°
2026-04-20 17:33 58.80831 19.72521 39405 ft 429 kts 68°
2026-04-20 17:33 58.82672 19.81421 39401 ft 429 kts 68°
2026-04-20 17:34 58.84876 19.92130 39393 ft 429 kts 68°
2026-04-20 17:34 58.87067 20.02860 39408 ft 429 kts 68°
2026-04-20 17:35 58.89251 20.13583 39391 ft 428 kts 68°
2026-04-20 17:35 58.91423 20.24313 39387 ft 428 kts 68°
2026-04-20 17:36 58.93587 20.35043 39388 ft 428 kts 68°
2026-04-20 17:36 58.95736 20.45781 39388 ft 427 kts 68°
2026-04-20 17:37 58.97879 20.56534 39381 ft 427 kts 68°
2026-04-20 17:37 59.00015 20.67297 39381 ft 427 kts 68°
2026-04-20 17:38 59.02138 20.78067 39381 ft 427 kts 69°
2026-04-20 17:38 59.04251 20.88853 39326 ft 427 kts 67°
2026-04-20 17:38 59.05529 20.93940 39094 ft 419 kts 58°
2026-04-20 17:39 59.07036 20.98669 39008 ft 405 kts 58°
2026-04-20 17:39 59.08499 21.03270 38867 ft 393 kts 58°
2026-04-20 17:39 59.09920 21.07782 38379 ft 389 kts 59°
2026-04-20 17:39 59.11326 21.12277 37769 ft 389 kts 59°
2026-04-20 17:40 59.12734 21.16785 37153 ft 390 kts 59°
2026-04-20 17:40 59.14140 21.21295 36547 ft 389 kts 59°
2026-04-20 17:40 59.15542 21.25790 35965 ft 388 kts 60°
2026-04-20 17:40 59.16939 21.30275 35395 ft 386 kts 60°
2026-04-20 17:41 59.18329 21.34745 34828 ft 384 kts 60°
2026-04-20 17:41 59.19708 21.39184 34279 ft 382 kts 60°
2026-04-20 17:41 59.21077 21.43599 33623 ft 380 kts 60°
2026-04-20 17:41 59.22439 21.48010 32971 ft 377 kts 60°
2026-04-20 17:42 59.23788 21.52390 32373 ft 375 kts 60°
2026-04-20 17:42 59.25130 21.56753 31748 ft 373 kts 61°
2026-04-20 17:42 59.26441 21.61025 31163 ft 370 kts 61°
2026-04-20 17:42 59.27761 21.65334 30585 ft 368 kts 61°
2026-04-20 17:43 59.29072 21.69617 29945 ft 366 kts 61°
2026-04-20 17:43 59.30372 21.73870 29280 ft 363 kts 61°
2026-04-20 17:43 59.31663 21.78110 28660 ft 361 kts 61°
2026-04-20 17:43 59.32942 21.82317 28026 ft 358 kts 61°
2026-04-20 17:44 59.34215 21.86496 27408 ft 356 kts 60°
2026-04-20 17:44 59.35480 21.90655 26807 ft 354 kts 60°
2026-04-20 17:44 59.36737 21.94791 26200 ft 352 kts 60°
2026-04-20 17:44 59.37988 21.98920 25626 ft 351 kts 60°
2026-04-20 17:45 59.38810 22.01638 25242 ft 350 kts 60°
2026-04-20 17:45 59.40463 22.07123 24492 ft 348 kts 60°
2026-04-20 17:45 59.41695 22.11220 23942 ft 347 kts 60°
2026-04-20 17:45 59.42926 22.15323 23151 ft 350 kts 60°
2026-04-20 17:46 59.44180 22.19497 22046 ft 360 kts 60°
2026-04-20 17:46 59.45450 22.23732 21548 ft 356 kts 60°
2026-04-20 17:46 59.46685 22.27852 21365 ft 343 kts 60°
2026-04-20 17:46 59.47865 22.31808 21312 ft 327 kts 60°
2026-04-20 17:47 59.48970 22.35529 21329 ft 311 kts 60°
2026-04-20 17:47 59.50063 22.39194 21329 ft 303 kts 60°
2026-04-20 17:47 59.51151 22.42677 21328 ft 302 kts 58°
2026-04-20 17:47 59.52280 22.46165 21159 ft 303 kts 58°
2026-04-20 17:48 59.53404 22.49595 21016 ft 293 kts 58°
2026-04-20 17:48 59.54496 22.52927 20950 ft 288 kts 58°
2026-04-20 17:48 59.55576 22.56244 20880 ft 287 kts 58°
2026-04-20 17:48 59.56650 22.59559 20815 ft 287 kts 58°
2026-04-20 17:49 59.57728 22.62889 20740 ft 287 kts 58°
2026-04-20 17:49 59.58797 22.66207 20684 ft 287 kts 58°
2026-04-20 17:49 59.59864 22.69529 20624 ft 288 kts 58°
2026-04-20 17:49 59.60934 22.72867 20560 ft 287 kts 58°
2026-04-20 17:50 59.61997 22.76190 20507 ft 286 kts 58°
2026-04-20 17:50 59.63055 22.79501 20443 ft 285 kts 58°
2026-04-20 17:50 59.64113 22.82814 20379 ft 285 kts 58°
2026-04-20 17:50 59.65167 22.86122 20315 ft 284 kts 58°
2026-04-20 17:51 59.66221 22.89435 20249 ft 284 kts 58°
2026-04-20 17:51 59.67274 22.92744 20189 ft 284 kts 58°
2026-04-20 17:51 59.68317 22.96039 19917 ft 281 kts 58°
2026-04-20 17:51 59.69353 22.99314 19529 ft 281 kts 58°
2026-04-20 17:52 59.70389 23.02586 19150 ft 280 kts 58°
2026-04-20 17:52 59.71421 23.05843 18782 ft 279 kts 58°
2026-04-20 17:52 59.72452 23.09098 18397 ft 278 kts 58°
2026-04-20 17:52 59.73476 23.12342 18004 ft 277 kts 58°
2026-04-20 17:53 59.74492 23.15572 17627 ft 275 kts 58°
2026-04-20 17:53 59.75502 23.18787 17259 ft 274 kts 58°
2026-04-20 17:53 59.76504 23.21983 16907 ft 272 kts 58°
2026-04-20 17:53 59.77501 23.25168 16560 ft 271 kts 58°
2026-04-20 17:54 59.78493 23.28338 16216 ft 270 kts 58°
2026-04-20 17:54 59.79465 23.31459 15882 ft 269 kts 58°
2026-04-20 17:54 59.80445 23.34604 15557 ft 267 kts 58°
2026-04-20 17:54 59.81428 23.37760 15033 ft 273 kts 58°
2026-04-20 17:55 59.82423 23.40950 14713 ft 265 kts 58°
2026-04-20 17:55 59.83377 23.44013 14309 ft 256 kts 58°
2026-04-20 17:55 59.84302 23.46991 13835 ft 250 kts 58°
2026-04-20 17:55 59.85213 23.49923 13263 ft 247 kts 58°
2026-04-20 17:56 59.86112 23.52819 12677 ft 245 kts 58°
2026-04-20 17:56 59.86994 23.55669 12101 ft 244 kts 58°
2026-04-20 17:56 59.87878 23.58532 11534 ft 242 kts 58°
2026-04-20 17:56 59.88757 23.61382 10961 ft 241 kts 58°
2026-04-20 17:57 59.89629 23.64221 10454 ft 239 kts 58°
2026-04-20 17:57 59.90495 23.67041 10303 ft 240 kts 58°
2026-04-20 17:57 59.91368 23.69884 10315 ft 241 kts 58°
2026-04-20 17:57 59.92241 23.72727 10140 ft 238 kts 58°
2026-04-20 17:58 59.93104 23.75532 9503 ft 237 kts 58°
2026-04-20 17:58 59.93962 23.78321 8902 ft 235 kts 58°
2026-04-20 17:58 59.94811 23.81083 8304 ft 232 kts 58°
2026-04-20 17:58 59.95652 23.83827 7693 ft 231 kts 58°
2026-04-20 17:59 59.96482 23.86548 7102 ft 229 kts 58°
2026-04-20 17:59 59.97306 23.89257 6500 ft 227 kts 58°
2026-04-20 17:59 59.98123 23.91947 5912 ft 224 kts 58°
2026-04-20 17:59 59.98912 23.94550 5479 ft 216 kts 57°
2026-04-20 18:00 59.99685 23.97095 5075 ft 211 kts 57°
2026-04-20 18:00 60.00457 23.99633 5020 ft 215 kts 57°
2026-04-20 18:00 60.01234 24.02193 5026 ft 216 kts 57°
2026-04-20 18:00 60.02013 24.04768 5020 ft 217 kts 57°
2026-04-20 18:01 60.02775 24.07289 5016 ft 204 kts 57°
2026-04-20 18:01 60.03494 24.09673 5028 ft 198 kts 57°
2026-04-20 18:01 60.04201 24.12015 5024 ft 195 kts 57°
2026-04-20 18:01 60.04900 24.14325 5046 ft 194 kts 57°
2026-04-20 18:02 60.05598 24.16633 5030 ft 194 kts 57°
2026-04-20 18:02 60.06295 24.18947 5015 ft 194 kts 57°
2026-04-20 18:02 60.06989 24.21257 5013 ft 194 kts 57°
2026-04-20 18:02 60.07684 24.23570 5026 ft 194 kts 57°
2026-04-20 18:03 60.08374 24.25872 4954 ft 190 kts 57°
2026-04-20 18:03 60.09045 24.28113 4490 ft 181 kts 57°
2026-04-20 18:03 60.09654 24.30156 4361 ft 161 kts 57°
2026-04-20 18:03 60.10191 24.31962 4232 ft 144 kts 57°
2026-04-20 18:04 60.10683 24.33612 4061 ft 133 kts 56°
2026-04-20 18:04 60.11152 24.35178 3761 ft 130 kts 56°
2026-04-20 18:04 60.11617 24.36734 3457 ft 130 kts 56°
2026-04-20 18:04 60.12078 24.38282 3138 ft 129 kts 56°
2026-04-20 18:05 60.12994 24.41355 2535 ft 125 kts 56°
2026-04-20 18:05 60.13439 24.42846 2327 ft 124 kts 55°
2026-04-20 18:05 60.13889 24.44352 2323 ft 126 kts 56°
2026-04-20 18:06 60.14341 24.45870 2318 ft 127 kts 56°
2026-04-20 18:06 60.14794 24.47392 2316 ft 127 kts 56°
2026-04-20 18:06 60.15248 24.48919 2313 ft 127 kts 56°
2026-04-20 18:06 60.15702 24.50447 2314 ft 127 kts 56°
2026-04-20 18:07 60.16153 24.51971 2314 ft 127 kts 56°
2026-04-20 18:07 60.16649 24.53639 2332 ft 153 kts 56°
2026-04-20 18:07 60.17216 24.55546 2317 ft 162 kts 57°
2026-04-20 18:07 60.17797 24.57508 2312 ft 164 kts 56°
2026-04-20 18:08 60.18373 24.59455 2312 ft 164 kts 57°
2026-04-20 18:08 60.18955 24.61432 2311 ft 164 kts 57°
2026-04-20 18:08 60.19536 24.63408 2312 ft 164 kts 57°
2026-04-20 18:08 60.20121 24.65379 2313 ft 164 kts 55°
2026-04-20 18:09 60.20794 24.67219 2310 ft 163 kts 49°
2026-04-20 18:09 60.21525 24.68952 2314 ft 163 kts 47°
2026-04-20 18:09 60.22283 24.70657 2311 ft 163 kts 46°
2026-04-20 18:09 60.23048 24.72343 2311 ft 163 kts 46°
2026-04-20 18:10 60.23813 24.74018 2271 ft 163 kts 45°
2026-04-20 18:10 60.24570 24.75673 2115 ft 154 kts 45°
2026-04-20 18:10 60.25246 24.77152 1935 ft 136 kts 45°
2026-04-20 18:10 60.25869 24.78511 1762 ft 129 kts 45°
2026-04-20 18:11 60.26472 24.79828 1592 ft 127 kts 45°
2026-04-20 18:11 60.27070 24.81132 1416 ft 126 kts 45°
2026-04-20 18:11 60.27661 24.82426 1245 ft 126 kts 45°
2026-04-20 18:11 60.28254 24.83722 1067 ft 126 kts 46°
2026-04-20 18:12 60.28847 24.85021 890 ft 126 kts 46°
2026-04-20 18:12 60.29447 24.86335 719 ft 128 kts 45°
2026-04-20 18:12 60.30044 24.87643 568 ft 128 kts 44°
2026-04-20 18:12 60.30655 24.88985 379 ft 128 kts 45°
2026-04-20 18:13 60.31257 24.90304 215 ft 128 kts 45°
2026-04-20 18:13 60.31818 24.91530 161 ft 96 kts 49°
2026-04-20 18:13 60.32065 24.92080 165 ft 9 kts 47°
2026-04-20 18:13 60.32103 24.92163 166 ft 18 kts 47°
2026-04-20 18:14 60.32179 24.92371 170 ft 18 kts 56°
2026-04-20 18:14 60.32268 24.92533 171 ft 17 kts 46°
2026-04-20 18:14 60.32352 24.92722 171 ft 19 kts 51°
2026-04-20 18:14 60.32420 24.92961 174 ft 20 kts 66°
2026-04-20 18:15 60.32456 24.93205 177 ft 16 kts 77°
2026-04-20 18:15 60.32460 24.93240 178 ft 0 kts 77°
2026-04-20 18:15 60.32460 24.93242 178 ft 1 kts 77°
2026-04-20 18:16 60.32469 24.93323 178 ft 7 kts 77°
2026-04-20 18:16 60.32480 24.93425 178 ft 7 kts 77°
2026-04-20 18:16 60.32490 24.93517 178 ft 6 kts 77°
2026-04-20 18:16 60.32499 24.93595 179 ft 5 kts 77°
2026-04-20 18:17 60.32511 24.93704 179 ft 12 kts 77°
2026-04-20 18:17 60.32533 24.93890 179 ft 15 kts 70°
2026-04-20 18:17 60.32603 24.94059 180 ft 17 kts 47°
2026-04-20 18:17 60.32685 24.94241 182 ft 18 kts 47°
2026-04-20 18:18 60.32774 24.94438 183 ft 20 kts 47°
2026-04-20 18:18 60.32857 24.94621 188 ft 13 kts 47°
2026-04-20 18:18 60.32925 24.94763 199 ft 15 kts 47°
2026-04-20 18:18 60.32916 24.94873 182 ft 9 kts 127°
2026-04-20 18:19 60.32854 24.94942 179 ft 12 kts 162°
2026-04-20 18:19 60.32766 24.94999 174 ft 15 kts 162°
2026-04-20 18:19 60.32699 24.95041 171 ft 16 kts 163°
2026-04-20 18:19 60.32590 24.95112 168 ft 17 kts 162°
2026-04-20 18:20 60.32443 24.95208 166 ft 17 kts 162°
2026-04-20 18:20 60.32333 24.95286 164 ft 17 kts 151°
2026-04-20 18:20 60.32247 24.95439 162 ft 16 kts 137°
2026-04-20 18:20 60.32198 24.95528 162 ft 5 kts 137°
2026-04-20 18:21 60.32180 24.95562 161 ft 5 kts 137°
2026-04-20 18:21 60.32153 24.95612 161 ft 5 kts 137°
2026-04-20 18:21 60.32125 24.95663 161 ft 5 kts 137°
2026-04-20 18:21 60.32099 24.95711 161 ft 5 kts 137°
2026-04-20 18:22 60.32079 24.95748 162 ft 3 kts 138°
2026-04-20 18:22 60.32069 24.95766 162 ft 1 kts 138°
2026-04-20 18:22 60.32047 24.95805 162 ft 5 kts 138°
2026-04-20 18:22 60.32019 24.95856 162 ft 6 kts 137°
2026-04-20 18:23 60.31990 24.95911 162 ft 6 kts 137°
2026-04-20 18:23 60.31985 24.95920 162 ft 0 kts 137°
2026-04-20 18:23 60.31984 24.95921 162 ft 2 kts 137°
2026-04-20 18:24 60.31965 24.96024 162 ft 11 kts 78°
2026-04-20 18:24 60.32015 24.96153 163 ft 13 kts 47°
2026-04-20 18:24 60.32027 24.96178 164 ft 0 kts 46°
2026-04-20 18:26 60.32044 24.96215 164 ft 11 kts 46°
2026-04-20 18:27 60.32111 24.96358 165 ft 15 kts 49°
2026-04-20 18:27 60.32158 24.96467 166 ft 16 kts 48°
2026-04-20 18:27 60.32240 24.96644 167 ft 12 kts 50°
2026-04-20 18:27 60.32218 24.96764 169 ft 9 kts 147°
2026-04-20 18:28 60.32159 24.96835 170 ft 11 kts 150°
2026-04-20 18:28 60.32083 24.96922 171 ft 14 kts 150°
2026-04-20 18:28 60.32008 24.97007 172 ft 5 kts 150°
2026-04-20 18:28 60.31979 24.97025 173 ft 3 kts 172°
2026-04-20 18:29 60.31965 24.97007 173 ft 2 kts 229°
2026-04-20 18:29 60.31957 24.96978 172 ft 3 kts 242°
2026-04-20 18:29 60.31949 24.96940 172 ft 3 kts 251°
2026-04-20 18:29 60.31947 24.96929 172 ft 0 kts 248°